Regional Weather Roundup
Issued by NWS

Home | Current Version | Previous Version | Graphics & Text | Print | Product List | Glossary On
Versions: 1 2 3 4 5 6 7 8 9 10 11 12 13 14 15 16 17 18 19 20 21 22 23 24 25 26 27 28 29 30 31 32 33 34 35 36 37 38 39 40 41 42 43 44 45 46 47 48 49 50
000
ASUS45 KBOU 201707
RWRCO

WEATHER ROUNDUP FOR COLORADO
NATIONAL WEATHER SERVICE DENVER/BOULDER CO
1100 AM MDT SAT SEP 20 2014

NOTE: "FAIR" INDICATES FEW OR NO CLOUDS BELOW 12000 FEET WITH NO
SIGNIFICANT WEATHER AND/OR OBSTRUCTIONS TO VISIBILITY.

COZ001>005-013-030-031-201800-
...NORTHWEST COLORADO...

CITY           SKY/WX    TMP DP  RH WIND       PRES   REMARKS
CRAIG          SUNNY     67  47  48 VRB3      30.33F
HAYDEN         SUNNY     66  39  37 E3        30.34S
MEEKER         NOT AVBL
MOUNT WERNER   NOT AVBL
STEAMBOAT SPGS SUNNY     60  42  51 CALM      30.36S
WALDEN         SUNNY     61  34  36 CALM      30.43S
$$

COZ006>008-011-201800-
...WEST CENTRAL VALLEYS...

CITY           SKY/WX    TMP DP  RH WIND       PRES   REMARKS
GRAND JUNCTION SUNNY     76  45  33 S12       30.18S
MONTROSE       SUNNY     73  45  36 N5        30.25S
EAGLE          SUNNY     64  43  45 CALM      30.36F
RIFLE          SUNNY     71  44  37 CALM      30.25F
DELTA          SUNNY     74  44  33 CALM      30.22S HAZE
NUCLA          SUNNY     72  45  37 CALM      30.26S
$$

COZ017>023-064>068-201800-
...SOUTHWEST COLORADO...

CITY           SKY/WX    TMP DP  RH WIND       PRES   REMARKS
DURANGO        SUNNY     74  45  35 VRB3      30.27S
CORTEZ         SUNNY     75  46  35 VRB6      30.21F
PAGOSA SPRINGS SUNNY     73  39  29 CALM      30.34S
TELLURIDE      NOT AVBL
WOLF CREEK PAS SUNNY     55  34  44 NE10G17   30.65R
$$

COZ009-010-012-014-032>034-037-058>063-201800-
...CENTRAL COLORADO...

CITY           SKY/WX    TMP DP  RH WIND       PRES   REMARKS
ASPEN          SUNNY     69  43  38 NW6       30.37F
BUENA VISTA    SUNNY     71  36  28 E5        30.39F
COPPER MTN     SUNNY     59  34  38 W7        30.69R
BERTHOUD PASS  FAIR      48  46  93 NE3       30.73R
COTTONWOOD PAS SUNNY     68  34  28 E5        30.53S
GUNNISON       SUNNY     63  39  42 CALM      30.41S
KREMMLING      SUNNY     63  37  39 CALM      30.41S
LEADVILLE      SUNNY     61  34  36 CALM      30.51F
MONARCH PASS   SUNNY     54  36  50 E15       30.77R
SALIDA         SUNNY     71  39  31 CALM      30.44F
SUNLIGHT       SUNNY     59  37  44 NE6       30.61R
WILKERSON PASS NOT AVBL
$$

COZ069>075-201800-
...SAN LUIS VALLEY/SANGRE DE CRISTO MOUNTAINS...

CITY           SKY/WX    TMP DP  RH WIND       PRES   REMARKS
ALAMOSA        SUNNY     71  45  39 N7        30.35S
LA VETA PASS   SUNNY     66  36  32 NE15G22   30.54S
SAGUACHE       NOT AVBL
$$

COZ035-036-038>040-201800-
...NORTHERN COLORADO FRONT RANGE...

CITY           SKY/WX    TMP DP  RH WIND       PRES   REMARKS
DENVER INTL AP MOSUNNY   68  49  50 CALM      30.28S
DMNS CITY PARK   N/A     69  49  48 NE3       30.28S
AURORA         MOSUNNY   67  50  55 W6        30.30S
FRONT RANGE AP NOT AVBL
ERIE MUNI ARPT SUNNY     70  47  44 SW5       30.27S
BOULDER MUN AP SUNNY     68  46  45 CALM      30.27F
CENTENNIAL     MOSUNNY   66  49  54 NW5       30.31R
BROOMFIELD     MOSUNNY   68  46  45 CALM      30.30S
FORT COLLINS   SUNNY     70  46  43 E5        30.26F
LONGMONT       SUNNY     74  48  40 E3        30.27F
$$

COZ041-046-047-076>085-087-088-201800-
...PIKES PEAK/PALMER DIVIDE AND SOUTHERN FOOTHILLS...

CITY           SKY/WX    TMP DP  RH WIND       PRES   REMARKS
COLO. SPRINGS  MOSUNNY   79  44  28 N10       30.28R
A. F. ACADEMY  SUNNY     72  46  38 N17       30.31R
ELLICOTT       NOT AVBL
FALCON         SUNNY     72  45  38 N12G18    30.34R
FORT CARSON    SUNNY     78  46  32 N14       30.25R
LIMON          SUNNY     73  51  46 NE8       30.25S
MONUMENT HILL  SUNNY     64  46  52 NW8       30.36R
TRINIDAD       SUNNY     80  44  27 NE8G18    30.24R
$$

COZ042>045-048>051-090-091-201800-
...NORTHEAST COLORADO...

CITY           SKY/WX    TMP DP  RH WIND       PRES   REMARKS
GREELEY ARPT   SUNNY     72  46  40 CALM      30.26S
AKRON          SUNNY     73  49  42 NE12      30.22R
BURLINGTON     SUNNY     74  52  46 NE18G28   30.16R
WRAY           SUNNY     79  46  31 NE15G21   30.16R
STERLING       SUNNY     77  52  41 NE8       30.19R
HOLYOKE        SUNNY     79  46  31 NE12      30.17R
FORT MORGAN    SUNNY     73  45  36 E9        30.24R
$$

COZ086-089-092>099-201800-
...SOUTHEAST COLORADO...

CITY           SKY/WX    TMP DP  RH WIND       PRES   REMARKS
PUEBLO         SUNNY     80  46  30 S7        30.17S
LA JUNTA       SUNNY     81  50  33 N14G24    30.15S
LAMAR          SUNNY     82  55  39 N13       30.08S
SPRINGFIELD      N/A     82  54  37 N18       30.12R
$$


USA.gov is the U.S. government's official web portal to all federal, state and local government web resources and services.